Date,TemperatureHighF,TemperatureAvgF,TemperatureLowF,DewpointHighF,DewpointAvgF,DewpointLowF,HumidityHigh,HumidityAvg,HumidityLow,PressureMaxIn,PressureMinIn,WindSpeedMaxMPH,WindSpeedAvgMPH,GustSpeedMaxMPH,PrecipitationSumIn
2012-1-1,33.0,23.7,9.0,2.0,-15.6,-29.0,39,18,8,0.00,40.00,13,7,22,0.00
2012-1-2,43.0,30.1,22.0,15.0,8.0,0.0,70,41,21,0.00,40.00,5,2,11,0.00
2012-1-3,37.0,30.2,23.0,7.0,4.4,2.0,44,33,22,0.00,40.00,19,8,32,0.00
2012-1-4,39.0,28.6,22.0,8.0,3.3,-2.0,46,35,20,0.00,40.00,7,4,14,0.00
2012-1-5,46.0,34.1,27.0,12.0,6.7,2.0,38,32,20,0.00,40.00,7,3,13,0.00
2012-1-6,32.0,26.7,22.0,11.0,6.5,-3.0,55,42,33,0.00,40.00,11,7,22,0.00
2012-1-7,25.0,20.1,12.0,18.0,11.5,-3.0,89,73,32,0.00,40.00,9,4,20,0.00
2012-1-8,20.0,12.6,8.0,11.0,6.3,3.0,85,76,59,0.00,40.00,5,1,10,0.17
2012-1-9,37.0,22.4,9.0,23.0,13.1,3.0,78,67,54,0.00,40.00,4,2,6,0.09
2012-1-10,43.0,28.5,21.0,18.0,13.3,2.0,79,56,21,0.00,40.00,18,4,41,0.05
2012-1-11,23.0,8.2,-4.0,14.0,2.5,-10.0,88,77,48,0.00,40.00,20,10,36,0.00
2012-1-12,16.0,5.4,-4.0,-2.0,-8.0,-11.0,73,54,37,0.00,40.00,12,5,21,0.03
2012-1-13,21.0,13.8,5.0,-3.0,-8.4,-14.0,49,36,22,0.00,40.00,13,8,26,0.01
2012-1-14,35.0,26.2,18.0,4.0,-0.0,-8.0,41,32,25,0.00,40.00,20,12,33,0.00
2012-1-15,37.0,29.0,23.0,0.0,-3.9,-9.0,33,24,14,0.00,40.00,18,10,37,0.00
2012-1-16,25.0,16.1,-4.0,18.0,7.6,-10.0,88,71,28,0.00,40.00,16,8,30,0.00
2012-1-17,9.0,0.4,-9.0,-2.0,-9.0,-16.0,74,65,41,0.00,40.00,28,12,52,0.00
2012-1-18,24.0,17.5,9.0,14.0,3.9,-5.0,72,55,44,0.00,40.00,33,24,54,0.00
2012-1-19,40.0,29.7,22.0,24.0,20.3,14.0,85,68,49,0.00,40.00,33,14,52,0.00
2012-1-20,29.0,23.2,20.0,23.0,18.9,11.0,93,84,63,0.00,40.00,18,11,37,0.00
2012-1-21,40.0,28.3,22.0,28.0,16.8,9.0,95,64,37,0.00,40.00,21,9,36,0.01
2012-1-22,23.0,14.0,9.0,20.0,9.5,3.0,92,82,72,0.00,40.00,18,11,29,0.01
2012-1-23,30.0,17.6,9.0,14.0,7.8,2.0,78,66,44,0.00,40.00,7,4,12,0.05
2012-1-24,22.0,16.4,9.0,17.0,11.8,5.0,89,82,69,0.00,40.00,9,4,14,0.03
2012-1-25,32.0,19.4,7.0,16.0,8.3,-8.0,85,63,38,0.00,40.00,17,7,28,0.03
2012-1-26,32.0,22.8,16.0,21.0,13.3,4.0,91,70,31,0.00,40.00,19,11,35,0.00
2012-1-27,19.0,12.0,3.0,16.0,5.9,-7.0,90,76,59,0.00,40.00,21,13,34,0.00
2012-1-28,20.0,12.1,2.0,-5.0,-10.5,-18.0,66,37,23,0.00,40.00,18,11,26,0.00
2012-1-29,33.0,23.6,15.0,12.0,5.9,-9.0,58,47,32,0.00,40.00,13,8,22,0.00
2012-1-30,35.0,26.5,21.0,8.0,6.7,5.0,55,43,30,0.00,40.00,25,8,37,0.00
2012-1-31,31.0,21.5,13.0,10.0,2.9,-3.0,86,47,23,0.00,40.00,12,6,22,0.00
2012-2-1,34.0,22.8,14.0,6.0,1.1,-6.0,67,41,21,0.00,40.00,15,6,25,0.00
2012-2-2,28.0,21.0,13.0,12.0,4.0,-3.0,86,49,33,0.00,40.00,11,6,22,0.00
2012-2-3,19.0,13.9,9.0,11.0,6.7,3.0,87,73,53,0.00,40.00,12,6,27,0.00
2012-2-4,26.0,14.8,6.0,4.0,-1.0,-6.0,79,51,33,0.00,40.00,7,3,10,0.01
2012-2-5,27.0,19.1,11.0,3.0,-0.8,-3.0,55,42,27,0.00,40.00,8,4,13,0.01
2012-2-6,23.0,14.7,8.0,10.0,4.0,1.0,85,63,38,0.00,40.00,7,3,14,0.00
2012-2-7,27.0,14.7,5.0,8.0,0.8,-8.0,84,57,33,0.00,40.00,7,2,11,0.09
2012-2-8,28.0,19.6,14.0,16.0,2.0,-16.0,89,50,22,0.00,40.00,13,6,22,0.04
2012-2-9,19.0,15.9,13.0,15.0,12.6,9.0,88,86,84,0.00,40.00,13,7,21,0.00
2012-2-10,22.0,17.6,12.0,18.0,11.9,8.0,85,79,61,0.00,40.00,14,8,24,0.01
2012-2-11,32.0,25.5,19.0,19.0,14.4,9.0,91,65,42,0.00,40.00,13,7,22,0.12
2012-2-12,35.0,26.1,18.0,18.0,12.1,6.0,90,57,36,0.00,40.00,14,6,20,0.03
2012-2-13,23.0,18.1,15.0,18.0,14.6,11.0,89,86,76,0.00,40.00,14,7,21,0.04
2012-2-14,25.0,18.0,14.0,16.0,11.9,7.0,87,77,53,0.00,40.00,15,8,32,0.02
2012-2-15,27.0,17.3,12.0,12.0,8.7,5.0,89,70,41,0.00,40.00,11,4,17,0.02
2012-2-16,26.0,17.2,13.0,11.0,8.6,4.0,87,70,40,0.00,40.00,14,7,22,0.01
2012-2-17,27.0,15.7,10.0,11.0,5.1,-9.0,85,67,20,0.00,40.00,10,3,18,0.01
2012-2-18,30.0,17.4,7.0,9.0,-0.9,-11.0,82,50,20,0.00,40.00,9,4,15,0.05
2012-2-19,30.0,21.3,7.0,14.0,1.5,-13.0,89,47,23,0.00,40.00,12,7,23,0.01
2012-2-20,12.0,6.8,2.0,5.0,0.3,-4.0,82,74,59,0.00,40.00,22,10,32,0.00
2012-2-21,22.0,15.4,9.0,14.0,6.6,0.0,76,68,61,0.00,40.00,22,17,37,0.00
2012-2-22,33.0,27.0,22.0,21.0,17.1,14.0,80,66,53,0.00,40.00,35,23,61,0.00
2012-2-23,26.0,10.4,3.0,21.0,5.2,-2.0,90,79,65,0.00,40.00,35,18,60,0.00
2012-2-24,23.0,11.9,3.0,2.0,-2.0,-4.0,79,56,33,0.00,40.00,19,11,27,0.00
2012-2-25,36.0,22.9,5.0,9.0,2.5,-2.0,83,44,25,0.00,40.00,37,15,68,0.00
2012-2-26,18.0,9.7,3.0,0.0,-14.3,-40.0,80,39,6,0.00,40.00,24,14,39,0.00
2012-2-27,38.0,27.9,16.0,10.0,-6.1,-40.0,46,25,6,0.00,40.00,16,10,29,0.00
2012-2-28,28.0,19.5,9.0,18.0,11.3,5.0,90,72,46,0.00,40.00,24,15,39,0.00
2012-2-29,29.0,16.1,7.0,13.0,7.0,2.0,83,68,47,0.00,40.00,22,10,35,0.02
2012-3-1,22.0,12.2,6.0,15.0,7.2,1.0,84,80,71,0.00,40.00,16,8,31,0.05
2012-3-2,11.0,4.3,0.0,3.0,-2.3,-6.0,80,73,62,0.00,40.00,17,8,27,0.05
2012-3-3,17.0,8.0,-1.0,12.0,1.2,-7.0,80,74,63,0.00,40.00,20,13,31,0.00
2012-3-4,33.0,22.8,16.0,14.0,11.6,6.0,84,64,37,0.00,40.00,14,8,24,0.09
2012-3-5,39.0,32.0,25.0,7.0,2.2,-3.0,41,28,22,0.00,40.00,27,13,43,0.05
2012-3-6,44.0,35.2,29.0,3.0,-2.3,-10.0,29,21,10,0.00,40.00,24,10,41,0.00
2012-3-7,35.0,27.4,16.0,18.0,7.5,-3.0,88,47,19,0.00,40.00,16,8,29,0.00
2012-3-8,36.0,23.8,13.0,14.0,8.6,-3.0,90,57,30,0.00,40.00,8,3,16,0.01
2012-3-9,42.0,31.1,21.0,3.0,-2.2,-10.0,39,25,14,0.00,40.00,9,3,11,0.01
2012-3-10,45.0,35.2,25.0,16.0,2.5,-8.0,55,26,14,0.00,40.00,7,3,12,0.00
2012-3-11,40.0,31.7,25.0,11.0,6.7,1.0,43,35,22,0.00,40.00,17,7,29,0.00
2012-3-12,42.0,33.3,26.0,9.0,6.6,2.0,43,33,23,0.00,40.00,20,11,32,0.00
2012-3-13,46.0,35.8,29.0,5.0,0.9,-4.0,35,23,13,0.00,40.00,25,10,41,0.00
2012-3-14,48.0,37.6,29.0,-1.0,-4.3,-7.0,23,17,10,0.00,40.00,16,10,24,0.00
2012-3-15,49.0,38.2,31.0,15.0,8.2,-3.0,38,28,22,0.00,40.00,12,6,18,0.00
2012-3-16,49.0,40.7,34.0,14.0,10.3,4.0,41,29,20,0.00,40.00,17,8,25,0.00
2012-3-17,52.0,42.3,36.0,7.0,5.0,3.0,27,21,13,0.00,40.00,15,9,25,0.00
2012-3-18,43.0,33.9,15.0,23.0,10.9,4.0,89,43,25,0.00,40.00,21,12,42,0.00
2012-3-19,23.0,13.8,8.0,11.0,2.9,-11.0,87,64,24,0.00,40.00,15,9,26,0.01
2012-3-20,27.0,17.2,8.0,10.0,4.0,-4.0,84,60,30,0.00,40.00,11,5,20,0.02
2012-3-21,38.0,25.9,16.0,18.0,10.4,3.0,65,52,36,0.00,40.00,10,4,16,0.01
2012-3-22,49.0,35.3,24.0,18.0,14.0,8.0,74,46,22,0.00,40.00,12,4,19,0.00
2012-3-23,57.0,44.7,34.0,12.0,9.1,5.0,38,24,16,0.00,40.00,11,4,17,0.00
2012-3-24,57.0,45.5,38.0,17.0,9.7,5.0,35,24,14,0.00,40.00,12,5,24,0.00
2012-3-25,57.0,47.5,40.0,18.0,10.6,4.0,37,23,16,0.00,40.00,14,8,23,0.00
2012-3-26,51.0,42.0,26.0,16.0,7.5,-2.0,44,25,11,0.00,40.00,27,17,54,0.00
2012-3-27,45.0,34.3,23.0,8.0,5.7,2.0,49,32,16,0.00,40.00,17,8,30,0.00
2012-3-28,50.0,41.3,32.0,11.0,8.1,5.0,32,25,19,0.00,40.00,13,8,28,0.00
2012-3-29,47.0,37.7,28.0,22.0,12.1,3.0,65,36,22,0.00,40.00,17,10,31,0.00
2012-3-30,49.0,40.2,32.0,19.0,16.0,13.0,48,38,26,0.00,40.00,17,10,31,0.00
2012-3-31,58.0,46.9,37.0,22.0,15.3,5.0,47,30,13,0.00,40.00,14,8,28,0.00
2012-4-1,58.0,47.0,29.0,19.0,6.9,1.0,65,21,10,0.00,40.00,18,8,32,0.00
2012-4-2,33.0,26.2,23.0,24.0,20.1,17.0,94,78,61,0.00,40.00,18,6,42,0.02
2012-4-3,37.0,28.1,20.0,21.0,17.3,14.0,88,65,48,0.00,40.00,20,8,39,0.01
2012-4-4,49.0,37.5,28.0,20.0,15.6,10.0,67,44,22,0.00,40.00,15,5,26,0.00
2012-4-5,50.0,42.0,34.0,19.0,6.9,-2.0,41,25,11,0.00,40.00,13,8,22,0.00
2012-4-6,47.0,37.8,17.0,14.0,2.5,-15.0,52,25,7,0.00,40.00,31,16,60,0.00
2012-4-7,42.0,27.2,11.0,2.0,-5.5,-12.0,56,28,11,0.00,40.00,14,6,22,0.00
2012-4-8,51.0,39.6,30.0,-4.0,-11.3,-16.0,18,11,6,0.00,40.00,16,10,28,0.00
2012-4-9,55.0,45.2,35.0,4.0,-1.1,-9.0,23,15,9,0.00,40.00,13,9,26,0.00
2012-4-10,57.0,51.5,41.0,19.0,5.8,-5.0,33,16,11,0.00,40.00,14,8,31,0.00
2012-4-11,58.0,49.4,40.0,33.0,20.1,10.0,75,34,16,0.00,40.00,17,10,42,0.01
2012-4-12,41.0,32.4,24.0,30.0,17.5,12.0,79,55,36,0.00,40.00,19,9,31,0.01
2012-4-13,39.0,28.6,21.0,23.0,12.9,4.0,93,56,23,0.00,40.00,19,9,34,0.00
2012-4-14,35.0,26.6,22.0,24.0,19.1,-99.9,93,77,53,0.00,40.00,12,6,19,0.08
2012-4-15,30.0,22.5,20.0,22.0,19.4,17.0,92,87,72,0.00,40.00,15,8,30,0.15
2012-4-16,32.0,24.4,19.0,21.0,17.2,14.0,90,75,55,0.00,40.00,20,10,28,0.13
2012-4-17,44.0,33.6,25.0,22.0,10.7,-99.9,59,46,32,0.00,40.00,18,9,27,0.01
2012-4-18,46.0,37.8,32.0,30.0,19.0,15.0,92,48,30,0.00,40.00,19,10,29,0.00
2012-4-19,36.0,29.8,25.0,30.0,25.4,23.0,95,84,58,0.00,40.00,19,8,34,0.16
2012-4-20,42.0,32.7,25.0,29.0,25.7,23.0,94,77,51,0.00,40.00,12,8,25,0.04
2012-4-21,51.0,42.8,34.0,24.0,20.4,-99.9,65,44,26,0.00,40.00,17,10,29,0.04
2012-4-22,57.0,48.5,40.0,22.0,18.7,15.0,45,32,19,0.00,40.00,13,6,23,0.00
2012-4-23,63.0,53.6,42.0,20.0,16.5,12.0,34,24,14,0.00,40.00,12,8,26,0.00
2012-4-24,61.0,54.3,47.0,21.0,17.6,11.0,31,24,18,0.00,40.00,20,10,44,0.00
2012-4-25,60.0,50.7,44.0,25.0,13.8,6.0,47,23,17,0.00,40.00,15,9,25,0.00
2012-4-26,58.0,47.3,34.0,35.0,27.1,20.0,96,49,24,0.00,40.00,17,8,36,0.08
2012-4-27,34.0,29.7,17.0,33.0,26.1,10.0,97,87,66,0.00,40.00,19,11,35,0.28
2012-4-28,40.0,25.6,13.0,13.0,9.7,-99.9,88,57,30,0.00,40.00,15,8,25,0.03
2012-4-29,46.0,34.4,23.0,14.0,9.5,6.0,52,36,21,0.00,40.00,21,9,33,0.01
2012-4-30,52.0,41.0,31.0,12.0,8.3,4.0,42,28,14,0.00,40.00,24,12,42,0.00
2012-5-1,52.0,42.9,36.0,32.0,18.7,8.0,81,40,25,0.00,40.00,21,10,37,0.00
2012-5-2,55.0,44.6,33.0,32.0,24.0,18.0,94,47,27,0.00,40.00,18,9,29,0.00
2012-5-3,60.0,49.6,33.0,31.0,20.2,13.0,94,35,16,0.00,40.00,14,9,26,0.03
2012-5-4,64.0,52.3,41.0,19.0,11.5,4.0,34,21,9,0.00,40.00,14,9,32,0.02
2012-5-5,61.0,48.5,35.0,22.0,9.5,-99.9,52,24,8,0.00,40.00,23,8,34,0.00
2012-5-6,49.0,36.6,29.0,32.0,21.6,9.0,92,58,29,0.00,40.00,13,5,26,0.03
2012-5-7,43.0,33.5,29.0,31.0,26.9,22.0,95,78,49,0.00,40.00,11,4,21,0.14
2012-5-8,53.0,37.8,26.0,30.0,21.7,7.0,96,60,17,0.00,40.00,11,4,23,0.09
2012-5-9,58.0,48.7,36.0,13.0,10.4,3.0,36,22,11,0.00,40.00,12,5,21,0.03
2012-5-10,61.0,52.8,44.0,19.0,12.6,4.0,34,21,10,0.00,40.00,13,8,24,0.00
2012-5-11,49.0,40.2,33.0,32.0,26.2,16.0,95,60,28,0.00,40.00,13,5,23,0.03
2012-5-12,49.0,39.4,33.0,32.0,26.0,-99.9,82,62,35,0.00,40.00,16,4,26,0.10
2012-5-13,46.0,38.0,33.0,29.0,23.7,17.0,71,57,37,0.00,40.00,11,4,25,0.02
2012-5-14,58.0,45.4,31.0,18.0,11.5,2.0,55,29,11,0.00,40.00,12,6,21,0.00
2012-5-15,65.0,53.4,44.0,16.0,8.3,3.0,25,17,10,0.00,40.00,15,7,24,0.00
2012-5-16,58.0,48.5,39.0,35.0,22.6,13.0,81,40,20,0.00,40.00,16,9,26,0.01
2012-5-17,59.0,47.5,36.0,30.0,25.5,18.0,79,45,24,0.00,40.00,16,7,26,0.01
2012-5-18,59.0,50.7,36.0,33.0,18.5,12.0,90,32,18,0.00,40.00,18,10,33,0.01
2012-5-19,45.0,34.3,30.0,39.0,30.0,-99.9,96,87,76,0.00,40.00,11,5,25,0.42
2012-5-20,54.0,44.0,34.0,30.0,25.6,22.0,78,50,35,0.00,40.00,11,5,22,0.01
2012-5-21,62.0,53.1,44.0,23.0,20.9,18.0,41,29,19,0.00,40.00,14,7,35,0.01
2012-5-22,67.0,58.4,51.0,20.0,14.3,8.0,27,18,12,0.00,40.00,23,13,44,0.00
2012-5-23,55.0,43.1,29.0,35.0,24.9,10.0,96,57,16,0.00,40.00,13,9,29,0.03
2012-5-24,44.0,32.9,24.0,28.0,23.2,3.0,96,73,19,0.00,40.00,13,8,29,0.40
2012-5-25,65.0,52.2,40.0,28.0,23.9,10.0,59,36,17,0.00,40.00,24,16,49,0.03
2012-5-26,66.0,57.4,39.0,23.0,13.1,6.0,40,19,9,0.00,40.00,23,15,46,0.00
2012-5-27,45.0,36.7,29.0,11.0,2.9,-6.0,39,24,14,0.00,40.00,23,14,37,0.00
2012-5-28,52.0,39.1,27.0,16.0,11.2,6.0,64,35,15,0.00,40.00,22,12,35,0.00
2012-5-29,60.0,48.2,36.0,15.0,9.6,3.0,33,22,11,0.00,40.00,18,9,29,0.00
2012-5-30,59.0,50.5,41.0,21.0,13.7,4.0,36,23,16,0.00,40.00,21,11,34,0.00
2012-5-31,60.0,49.6,39.0,28.0,25.4,21.0,57,40,26,0.00,40.00,17,9,29,0.00
2012-6-1,62.0,53.4,43.0,33.0,29.3,26.0,64,41,26,0.00,40.00,16,10,29,0.00
2012-6-2,64.0,53.6,46.0,35.0,27.5,-99.9,66,39,26,0.00,40.00,20,8,48,0.00
2012-6-3,67.0,57.2,46.0,32.0,27.2,23.0,52,33,19,0.00,40.00,18,7,31,0.00
2012-6-4,72.0,61.2,51.0,31.0,23.9,15.0,44,25,12,0.00,40.00,17,8,29,0.00
2012-6-5,67.0,57.4,50.0,35.0,28.8,23.0,48,34,20,0.00,40.00,20,12,29,0.00
2012-6-6,67.0,56.4,41.0,35.0,27.3,22.0,59,34,19,0.00,40.00,17,8,25,0.00
2012-6-7,68.0,58.0,49.0,29.0,20.6,13.0,42,25,12,0.00,40.00,17,9,30,0.00
2012-6-8,72.0,60.2,51.0,22.0,14.8,11.0,30,18,11,0.00,40.00,17,9,27,0.00
2012-6-9,71.0,60.6,53.0,16.0,11.0,-99.9,19,15,8,0.00,40.00,18,12,33,0.00
2012-6-10,56.0,43.7,28.0,20.0,3.9,-20.0,65,26,4,0.00,40.00,25,12,43,0.00
2012-6-11,63.0,47.5,32.0,15.0,5.5,-4.0,42,21,7,0.00,40.00,15,6,25,0.00
2012-6-12,65.0,53.9,43.0,23.0,9.0,0.0,39,18,8,0.00,40.00,19,11,38,0.00
2012-6-13,71.0,60.2,49.0,14.0,8.8,5.0,18,13,8,0.00,40.00,18,8,29,0.00
2012-6-14,72.0,59.0,49.0,25.0,14.0,4.0,32,18,9,0.00,40.00,20,7,34,0.00
2012-6-15,72.0,60.1,52.0,29.0,21.6,10.0,39,24,9,0.00,40.00,14,8,29,0.00
2012-6-16,68.0,54.7,47.0,31.0,24.6,-99.9,45,33,19,0.00,40.00,21,6,37,0.00
2012-6-17,72.0,61.5,51.0,26.0,20.0,8.0,34,22,9,0.00,40.00,24,14,41,0.00
2012-6-18,73.0,63.9,56.0,19.0,12.1,6.0,21,14,8,0.00,40.00,19,13,31,0.00
2012-6-19,74.0,64.3,56.0,15.0,10.8,7.0,16,12,9,0.00,40.00,17,11,28,0.00
2012-6-20,62.0,54.0,44.0,18.0,13.7,7.0,30,20,16,0.00,40.00,14,7,24,0.00
2012-6-21,74.0,60.2,45.0,35.0,18.8,1.0,60,27,6,0.00,40.00,16,9,25,0.00
2012-6-22,76.0,67.2,60.0,23.0,12.7,4.0,18,12,8,0.00,40.00,20,11,33,0.00
2012-6-23,79.0,67.7,58.0,19.0,15.3,11.0,19,14,8,0.00,40.00,19,10,32,0.00
2012-6-24,75.0,65.0,58.0,41.0,26.2,15.0,44,25,15,0.00,40.00,12,4,31,0.01
2012-6-25,81.0,69.0,60.0,31.0,25.8,17.0,32,21,12,0.00,40.00,16,7,24,0.01
2012-6-26,73.0,66.2,60.0,38.0,30.2,22.0,35,26,21,0.00,40.00,16,8,31,0.00
2012-6-27,72.0,62.6,55.0,40.0,35.6,32.0,50,37,26,0.00,40.00,17,9,30,0.00
2012-6-28,71.0,61.9,55.0,40.0,34.7,31.0,54,37,24,0.00,40.00,21,9,37,0.01
2012-6-29,75.0,63.1,55.0,37.0,30.8,23.0,51,31,15,0.00,40.00,17,7,26,0.03
2012-6-30,75.0,66.2,54.0,32.0,25.3,21.0,31,22,13,0.00,40.00,15,7,29,0.01
2012-7-1,76.0,67.2,59.0,28.0,20.5,13.0,27,18,10,0.00,40.00,16,9,22,0.00
2012-7-2,75.0,63.3,54.0,43.0,31.0,22.0,62,32,17,0.00,40.00,12,5,27,0.01
2012-7-3,74.0,61.1,52.0,42.0,37.4,33.0,67,43,24,0.00,40.00,17,7,34,0.01
2012-7-4,70.0,60.2,52.0,43.0,36.2,31.0,71,42,26,0.00,40.00,10,5,34,0.00
2012-7-5,77.0,60.1,49.0,49.0,42.8,34.0,98,57,21,0.00,40.00,13,5,21,0.39
2012-7-6,61.0,51.5,47.0,51.0,46.9,44.0,98,85,65,0.00,40.00,6,3,19,0.74
2012-7-7,64.0,52.4,47.0,47.0,44.3,38.0,94,75,50,0.00,40.00,16,7,26,0.49
2012-7-8,63.0,52.9,46.0,49.0,45.6,43.0,91,77,56,0.00,40.00,10,4,21,0.06
2012-7-9,68.0,57.5,49.0,45.0,41.3,32.0,81,58,26,0.00,40.00,11,5,28,0.03
2012-7-10,71.0,60.6,50.0,42.0,36.6,30.0,69,43,22,0.00,40.00,13,5,21,0.00
2012-7-11,71.0,62.9,52.0,41.0,35.4,29.0,58,37,24,0.00,40.00,12,4,25,0.03
2012-7-12,73.0,61.6,52.0,38.0,33.8,25.0,51,36,17,0.00,40.00,13,6,26,0.02
2012-7-13,73.0,65.3,56.0,36.0,30.1,25.0,44,28,18,0.00,40.00,14,8,27,0.00
2012-7-14,67.0,57.7,49.0,48.0,38.2,28.0,88,51,31,0.00,40.00,11,7,25,0.06
2012-7-15,69.0,56.4,48.0,48.0,42.3,37.0,87,61,32,0.00,40.00,13,5,27,0.01
2012-7-16,62.0,52.3,44.0,47.0,43.3,42.0,95,73,52,0.00,40.00,10,4,23,1.11
2012-7-17,66.0,55.8,44.0,45.0,40.5,37.0,92,59,37,0.00,40.00,10,4,18,0.01
2012-7-18,68.0,61.3,55.0,40.0,36.7,34.0,53,41,30,0.00,40.00,13,7,24,0.02
2012-7-19,75.0,62.9,55.0,40.0,37.2,33.0,55,39,26,0.00,40.00,19,6,32,0.01
2012-7-20,73.0,63.8,52.0,43.0,39.4,32.0,59,42,29,0.00,40.00,13,6,26,0.03
2012-7-21,74.0,61.2,53.0,42.0,38.3,29.0,60,44,21,0.00,40.00,17,6,31,0.02
2012-7-22,69.0,59.8,52.0,46.0,40.0,36.0,76,50,31,0.00,40.00,11,5,17,0.01
2012-7-23,71.0,61.9,53.0,45.0,40.0,33.0,70,46,26,0.00,40.00,13,6,39,0.01
2012-7-24,67.0,58.7,47.0,46.0,41.9,36.0,96,55,38,0.00,40.00,12,4,17,0.37
2012-7-25,64.0,54.8,46.0,51.0,43.3,34.0,97,68,41,0.00,40.00,13,4,20,0.46
2012-7-26,71.0,61.6,53.0,37.0,32.1,26.0,51,35,19,0.00,40.00,11,6,22,0.01
2012-7-27,70.0,58.0,46.0,46.0,40.6,36.0,96,56,32,0.00,40.00,14,8,24,0.39
2012-7-28,68.0,56.2,46.0,47.0,43.2,39.0,89,64,40,0.00,40.00,13,5,18,0.33
2012-7-29,66.0,56.7,51.0,50.0,45.0,38.0,91,66,50,0.00,40.00,10,3,17,0.37
2012-7-30,65.0,57.1,50.0,49.0,44.8,42.0,78,65,46,0.00,40.00,19,4,37,0.07
2012-7-31,72.0,61.2,51.0,47.0,39.8,35.0,74,47,28,0.00,40.00,18,8,30,0.00
2012-8-1,66.0,56.8,49.0,45.0,41.7,38.0,76,58,43,0.00,40.00,13,5,31,0.06
2012-8-2,67.0,60.5,52.0,42.0,35.9,29.0,65,41,26,0.00,40.00,10,7,19,0.02
2012-8-3,68.0,59.1,53.0,33.0,28.6,21.0,44,32,17,0.00,40.00,21,10,42,0.01
2012-8-4,68.0,59.8,51.0,31.0,26.8,21.0,40,29,21,0.00,40.00,11,7,26,0.01
2012-8-5,74.0,63.2,53.0,35.0,28.7,23.0,46,29,16,0.00,40.00,12,6,23,0.00
2012-8-6,69.0,60.1,49.0,44.0,35.5,28.0,84,41,26,0.00,40.00,15,7,28,0.00
2012-8-7,70.0,59.2,47.0,44.0,35.8,21.0,80,47,17,0.00,40.00,10,5,19,0.00
2012-8-8,75.0,64.5,56.0,30.0,22.6,19.0,26,21,13,0.00,40.00,12,5,19,0.00
2012-8-9,75.0,65.8,59.0,33.0,26.3,19.0,37,23,12,0.00,40.00,14,9,31,0.00
2012-8-10,73.0,62.1,55.0,41.0,35.1,33.0,56,37,25,0.00,40.00,15,6,22,0.00
2012-8-11,66.0,55.7,51.0,47.0,37.2,-99.9,83,53,29,0.00,40.00,17,8,40,0.00
2012-8-12,71.0,60.0,48.0,38.0,30.4,25.0,56,35,19,0.00,40.00,18,5,26,0.00
2012-8-13,57.0,51.7,43.0,46.0,37.0,31.0,95,60,41,0.00,40.00,18,8,26,0.06
2012-8-14,70.0,55.1,43.0,42.0,34.4,21.0,92,52,16,0.00,40.00,11,4,19,0.03
2012-8-15,68.0,58.4,53.0,34.0,30.3,23.0,45,35,19,0.00,40.00,15,6,21,0.00
2012-8-16,67.0,59.9,55.0,34.0,31.1,27.0,43,34,22,0.00,40.00,15,9,32,0.01
2012-8-17,70.0,60.5,52.0,32.0,27.5,19.0,46,30,15,0.00,40.00,17,9,28,0.01
2012-8-18,68.0,58.3,49.0,34.0,29.1,17.0,49,34,19,0.00,40.00,16,7,31,0.00
2012-8-19,70.0,59.1,48.0,30.0,20.5,13.0,43,24,11,0.00,40.00,15,7,26,0.00
2012-8-20,60.0,55.1,48.0,39.0,27.9,18.0,62,37,22,0.00,40.00,9,4,18,0.01
2012-8-21,70.0,56.7,47.0,38.0,31.7,25.0,62,42,18,0.00,40.00,15,4,20,0.01
2012-8-22,63.0,55.7,48.0,45.0,36.6,29.0,90,51,34,0.00,40.00,15,7,25,0.03
2012-8-23,62.0,51.1,46.0,49.0,45.3,40.0,97,82,54,0.00,40.00,8,3,20,0.81
2012-8-24,61.0,51.4,46.0,47.0,40.9,35.0,85,69,42,0.00,40.00,8,3,25,0.64
2012-8-25,67.0,56.4,49.0,36.0,27.3,14.0,56,36,14,0.00,40.00,11,5,23,0.00
2012-8-26,69.0,62.4,51.0,31.0,24.4,21.0,38,24,17,0.00,40.00,11,6,21,0.00
2012-8-27,69.0,60.7,51.0,43.0,33.6,22.0,73,38,24,0.00,40.00,24,12,39,0.01
2012-8-28,71.0,59.6,53.0,45.0,36.8,33.0,68,44,26,0.00,40.00,19,6,27,0.01
2012-8-29,68.0,58.9,53.0,43.0,37.2,34.0,55,45,32,0.00,40.00,10,4,30,0.03
2012-8-30,66.0,57.0,50.0,45.0,38.5,34.0,72,51,36,0.00,40.00,16,6,31,0.08
2012-8-31,70.0,59.9,52.0,40.0,33.9,22.0,60,40,24,0.00,40.00,16,6,35,0.01
2012-9-1,68.0,58.8,48.0,41.0,35.2,29.0,77,42,32,0.00,40.00,12,8,26,0.00
2012-9-2,64.0,53.5,45.0,42.0,36.8,27.0,84,56,25,0.00,40.00,14,5,31,0.00
2012-9-3,62.0,53.1,47.0,41.0,34.8,29.0,66,51,30,0.00,40.00,12,6,37,0.00
2012-9-4,66.0,58.1,49.0,30.0,23.1,10.0,42,28,17,0.00,40.00,18,10,31,0.00
2012-9-5,66.0,57.2,49.0,21.0,12.4,6.0,24,17,12,0.00,40.00,14,7,26,0.00
2012-9-6,66.0,57.3,49.0,25.0,16.5,8.0,32,21,15,0.00,40.00,15,8,27,0.00
2012-9-7,58.0,49.0,42.0,43.0,34.3,21.0,89,60,24,0.00,40.00,16,6,25,0.01
2012-9-8,65.0,51.1,40.0,33.0,24.7,-5.0,64,40,6,0.00,40.00,15,4,20,0.01
2012-9-9,71.0,58.0,48.0,26.0,21.0,14.0,38,25,14,0.00,40.00,15,6,24,0.00
2012-9-10,67.0,58.0,50.0,32.0,24.6,18.0,40,28,19,0.00,40.00,10,6,20,0.00
2012-9-11,60.0,52.3,43.0,46.0,33.6,22.0,96,54,27,0.00,40.00,9,5,29,0.64
2012-9-12,54.0,45.7,42.0,45.0,38.1,26.0,98,79,43,0.00,40.00,10,4,15,0.87
2012-9-13,58.0,47.1,37.0,32.0,23.8,16.0,70,44,20,0.00,40.00,8,4,17,0.01
2012-9-14,64.0,51.9,42.0,25.0,18.8,10.0,46,29,14,0.00,40.00,10,4,21,0.00
2012-9-15,64.0,54.5,46.0,15.0,11.2,-1.0,26,18,11,0.00,40.00,11,5,24,0.00
2012-9-16,61.0,54.0,48.0,15.0,8.3,-4.0,23,16,10,0.00,40.00,13,5,20,0.00
2012-9-17,52.0,44.6,37.0,32.0,26.0,14.0,78,50,23,0.00,40.00,10,6,30,0.01
2012-9-18,59.0,48.2,40.0,21.0,19.0,16.0,47,32,21,0.00,40.00,16,7,28,0.01
2012-9-19,62.0,51.9,44.0,19.0,15.9,14.0,31,24,16,0.00,40.00,10,6,18,0.00
2012-9-20,61.0,52.8,45.0,19.0,14.5,11.0,28,22,14,0.00,40.00,15,6,24,0.00
2012-9-21,64.0,54.0,47.0,17.0,15.1,11.0,28,22,15,0.00,40.00,11,6,21,0.00
2012-9-22,65.0,54.1,46.0,23.0,14.4,-99.9,33,22,13,0.00,40.00,13,5,21,0.00
2012-9-23,62.0,53.6,47.0,27.0,16.2,10.0,39,23,14,0.00,40.00,16,8,26,0.00
2012-9-24,57.0,46.9,40.0,38.0,32.4,26.0,86,59,33,0.00,40.00,14,7,25,0.02
2012-9-25,47.0,40.4,36.0,38.0,33.8,31.0,94,78,63,0.00,40.00,10,3,19,0.07
2012-9-26,51.0,39.8,33.0,37.0,33.6,30.0,95,80,45,0.00,40.00,5,3,13,0.37
2012-9-27,47.0,38.7,33.0,35.0,32.7,31.0,95,80,58,0.00,40.00,8,3,17,0.11
2012-9-28,56.0,45.1,36.0,36.0,28.9,13.0,87,58,25,0.00,40.00,9,4,16,0.05
2012-9-29,55.0,47.0,40.0,29.0,25.2,19.0,59,44,26,0.00,40.00,10,5,21,0.00
2012-9-30,54.0,45.4,39.0,30.0,26.5,23.0,61,48,30,0.00,40.00,12,5,25,0.00
2012-10-1,57.0,46.4,36.0,30.0,25.0,20.0,64,44,24,0.00,40.00,11,5,26,0.00
2012-10-2,61.0,49.3,41.0,24.0,20.4,16.0,47,33,21,0.00,40.00,11,6,20,0.00
2012-10-3,58.0,48.8,42.0,21.0,16.6,-1.0,37,28,15,0.00,40.00,20,12,34,0.00
2012-10-4,53.0,43.0,33.0,16.0,9.5,0.0,33,25,17,0.00,40.00,26,7,52,0.00
2012-10-5,43.0,35.8,30.0,30.0,14.0,6.0,93,44,24,0.00,40.00,21,9,35,0.04
2012-10-6,34.0,26.9,19.0,8.0,1.1,-8.0,51,33,22,0.00,40.00,13,7,25,0.01
2012-10-7,40.0,27.7,17.0,2.0,-2.6,-7.0,47,28,13,0.00,40.00,15,5,23,0.00
2012-10-8,52.0,38.1,26.0,4.0,-4.3,-9.0,27,17,8,0.00,40.00,20,10,34,0.00
2012-10-9,52.0,42.3,36.0,12.0,8.4,4.0,34,25,16,0.00,40.00,22,14,37,0.00
2012-10-10,56.0,45.8,37.0,22.0,16.0,10.0,39,30,21,0.00,40.00,17,11,34,0.00
2012-10-11,60.0,48.4,41.0,27.0,19.2,14.0,48,32,18,0.00,40.00,16,8,26,0.00
2012-10-12,55.0,43.7,31.0,39.0,28.8,23.0,95,60,32,0.00,40.00,16,6,31,0.03
2012-10-13,32.0,28.8,25.0,31.0,26.9,22.0,96,92,86,0.00,40.00,9,5,28,0.02
2012-10-14,43.0,34.8,29.0,31.0,29.1,26.0,97,81,55,0.00,40.00,9,5,19,0.37
2012-10-15,50.0,41.3,34.0,26.0,20.4,12.0,69,45,25,0.00,40.00,19,7,28,0.03
2012-10-16,51.0,40.7,28.0,30.0,24.5,19.0,95,54,37,0.00,40.00,27,15,47,0.04
2012-10-17,32.0,24.4,16.0,27.0,11.8,0.0,94,64,25,0.00,40.00,26,16,40,0.04
2012-10-18,40.0,29.6,21.0,10.0,6.2,3.0,48,37,28,0.00,40.00,18,10,30,0.00
2012-10-19,50.0,39.6,31.0,18.0,13.9,9.0,46,35,24,0.00,40.00,18,8,29,0.00
2012-10-20,55.0,44.6,37.0,14.0,12.0,9.0,35,27,17,0.00,40.00,21,11,32,0.00
2012-10-21,54.0,45.7,40.0,18.0,12.6,7.0,34,26,22,0.00,40.00,16,8,26,0.00
2012-10-22,53.0,43.4,37.0,19.0,16.1,11.0,43,34,20,0.00,40.00,19,7,29,0.00
2012-10-23,49.0,43.6,38.0,18.0,10.6,2.0,41,27,15,0.00,40.00,26,15,44,0.00
2012-10-24,44.0,35.8,19.0,27.0,15.7,9.0,90,49,26,0.00,40.00,21,11,37,0.00
2012-10-25,23.0,17.4,13.0,16.0,12.8,9.0,88,82,68,0.00,40.00,10,4,23,0.15
2012-10-26,23.0,15.2,9.0,17.0,10.2,5.0,84,80,73,0.00,40.00,10,4,18,0.13
2012-10-27,31.0,22.1,16.0,12.0,9.3,6.0,75,58,42,0.00,40.00,20,12,29,0.01
2012-10-28,37.0,31.6,26.0,24.0,18.2,10.0,77,58,46,0.00,40.00,12,8,22,0.02
2012-10-29,46.0,37.9,32.0,23.0,21.6,19.0,66,53,36,0.00,40.00,15,8,22,0.01
2012-10-30,47.0,38.8,34.0,23.0,20.0,18.0,56,47,38,0.00,40.00,10,5,16,0.00
2012-10-31,48.0,41.0,35.0,20.0,17.4,14.0,46,38,32,0.00,40.00,10,4,17,0.00
2012-11-1,49.0,41.3,36.0,15.0,13.1,9.0,39,31,24,0.00,40.00,11,6,19,0.00
2012-11-2,41.0,35.3,29.0,21.0,16.2,12.0,66,46,36,0.00,40.00,13,7,23,0.00
2012-11-3,43.0,34.7,29.0,20.0,16.3,14.0,66,48,32,0.00,40.00,12,6,26,0.00
2012-11-4,41.0,33.7,29.0,23.0,16.4,9.0,63,49,38,0.00,40.00,12,6,23,0.00
2012-11-5,42.0,34.8,30.0,27.0,24.4,23.0,81,66,51,0.00,40.00,12,7,19,0.00
2012-11-6,47.0,38.7,32.0,25.0,20.9,16.0,72,51,33,0.00,40.00,12,5,18,0.00
2012-11-7,51.0,42.3,36.0,17.0,13.1,6.0,41,31,16,0.00,40.00,13,5,21,0.00
2012-11-8,52.0,41.7,35.0,14.0,9.5,0.0,40,27,17,0.00,40.00,10,5,20,0.00
2012-11-9,48.0,38.7,30.0,22.0,13.4,3.0,64,36,23,0.00,40.00,16,9,34,0.00
2012-11-10,34.0,20.6,8.0,22.0,13.4,4.0,93,76,38,0.00,40.00,20,10,37,0.00
2012-11-11,8.0,4.6,1.0,4.0,-0.6,-4.0,83,79,74,0.00,40.00,19,10,34,0.00
2012-11-12,25.0,13.0,-1.0,13.0,3.5,-6.0,79,66,48,0.00,40.00,8,4,21,0.01
2012-11-13,29.0,20.9,16.0,13.0,7.8,-2.0,75,57,41,0.00,40.00,9,4,14,0.01
2012-11-14,40.0,28.1,19.0,14.0,7.6,-99.9,72,45,31,0.00,40.00,15,7,24,0.00
2012-11-15,36.0,28.2,23.0,14.0,10.8,6.0,63,48,37,0.00,40.00,10,5,16,0.00
2012-11-16,47.0,32.8,25.0,19.0,9.4,2.0,53,38,17,0.00,40.00,9,5,15,0.00
2012-11-17,40.0,32.3,26.0,25.0,22.4,18.0,94,68,50,0.00,40.00,9,5,18,0.02
2012-11-18,32.0,28.9,26.0,26.0,21.0,17.0,92,73,58,0.00,40.00,18,10,30,0.01
2012-11-19,37.0,29.6,25.0,25.0,18.8,14.0,94,65,45,0.00,40.00,14,6,22,0.01
2012-11-20,46.0,35.4,28.0,19.0,14.6,11.0,57,43,33,0.00,40.00,7,3,15,0.00
2012-11-21,46.0,38.1,32.0,12.0,5.3,0.0,40,26,17,0.00,40.00,24,9,37,0.00
2012-11-22,38.0,31.0,23.0,22.0,15.3,6.0,78,53,33,0.00,40.00,22,10,37,0.00
2012-11-23,39.0,29.6,22.0,13.0,8.8,3.0,68,43,27,0.00,40.00,8,4,15,0.00
2012-11-24,44.0,34.7,29.0,10.0,5.8,2.0,36,29,23,0.00,40.00,18,10,28,0.00
2012-11-25,40.0,31.8,23.0,15.0,5.3,1.0,71,33,23,0.00,40.00,23,11,39,0.00
2012-11-26,28.0,21.5,19.0,16.0,13.3,2.0,86,73,36,0.00,40.00,8,4,17,0.00
2012-11-27,38.0,29.8,23.0,3.0,-6.5,-18.0,33,21,13,0.00,40.00,23,9,34,0.00
2012-11-28,38.0,31.2,27.0,8.0,1.0,-7.0,37,27,16,0.00,40.00,16,6,25,0.00
2012-11-29,41.0,32.8,29.0,19.0,15.7,5.0,58,49,36,0.00,40.00,16,9,32,0.00
2012-11-30,44.0,33.1,27.0,19.0,16.7,15.0,67,52,33,0.00,40.00,12,4,20,0.00
2012-12-1,41.0,33.7,30.0,22.0,17.2,8.0,69,52,34,0.00,40.00,20,11,35,0.00
2012-12-2,45.0,34.5,28.0,21.0,9.4,3.0,62,36,22,0.00,40.00,18,8,27,0.00
2012-12-3,33.0,25.6,19.0,25.0,12.3,-7.0,93,61,24,0.00,40.00,19,8,37,0.02
2012-12-4,36.0,26.5,18.0,15.0,4.3,-2.0,60,39,22,0.00,40.00,10,4,19,0.02
2012-12-5,45.0,34.5,30.0,25.0,19.8,14.0,69,56,29,0.00,40.00,19,9,37,0.00
2012-12-6,32.0,25.9,22.0,26.0,18.8,-99.9,95,80,61,0.00,40.00,14,5,23,0.01
2012-12-7,27.0,22.4,18.0,20.0,16.7,14.0,92,79,59,0.00,40.00,23,11,39,0.01
2012-12-8,21.0,18.5,3.0,16.0,12.5,-2.0,90,77,63,0.00,40.00,28,12,44,0.00
2012-12-9,7.0,0.0,-6.0,2.0,-5.4,-12.0,80,77,74,0.00,40.00,10,7,16,0.00
2012-12-10,9.0,6.5,-4.0,5.0,2.2,-10.0,83,82,75,0.00,40.00,12,9,19,0.00
2012-12-11,15.0,9.5,6.0,12.0,5.6,1.0,86,84,81,0.00,40.00,14,7,24,0.00
2012-12-12,30.0,21.1,11.0,20.0,10.7,6.0,88,66,42,0.00,40.00,27,9,42,0.11
2012-12-13,36.0,27.6,21.0,7.0,4.5,0.0,51,37,26,0.00,40.00,9,5,15,0.01
2012-12-14,33.0,26.2,20.0,19.0,10.1,0.0,92,55,29,0.00,40.00,12,5,18,0.01
2012-12-15,23.0,19.1,14.0,18.0,14.3,10.0,90,82,64,0.00,40.00,12,6,23,0.00
2012-12-16,15.0,12.3,9.0,11.0,8.1,4.0,87,83,76,0.00,40.00,18,10,30,0.00
2012-12-17,22.0,16.1,11.0,15.0,10.7,6.0,87,79,67,0.00,40.00,28,20,45,0.00
2012-12-18,25.0,17.4,12.0,22.0,13.0,8.0,89,83,66,0.00,40.00,23,8,40,0.00
2012-12-19,20.0,4.0,-7.0,11.0,-1.8,-14.0,88,77,64,0.00,40.00,14,8,28,0.00
2012-12-20,22.0,7.2,-7.0,10.0,-3.3,-14.0,71,62,51,0.00,40.00,7,3,14,0.14
2012-12-21,36.0,23.7,14.0,2.0,-3.9,-11.0,57,31,18,0.00,40.00,9,4,14,0.02
2012-12-22,41.0,28.8,23.0,-8.0,-15.6,-23.0,25,14,9,0.00,40.00,9,4,14,0.02
2012-12-23,24.0,20.5,17.0,13.0,1.5,-20.0,72,47,13,0.00,40.00,15,5,24,0.01
2012-12-24,27.0,19.8,16.0,18.0,11.5,0.0,90,71,38,0.00,40.00,11,4,19,0.00
2012-12-25,26.0,11.5,4.0,21.0,7.0,-1.0,88,82,76,0.00,40.00,6,3,14,0.09
2012-12-26,26.0,14.4,6.0,16.0,7.2,1.0,88,73,61,0.00,40.00,11,4,25,0.04
2012-12-27,11.0,8.1,2.0,7.0,3.3,-3.0,85,81,77,0.00,40.00,14,8,25,0.01
2012-12-28,8.0,2.7,0.0,1.0,-2.6,-5.0,79,77,74,0.00,40.00,11,4,18,0.00
2012-12-29,29.0,11.9,-1.0,22.0,4.8,-6.0,79,73,54,0.00,40.00,5,2,8,0.13
2012-12-30,29.0,17.4,11.0,5.0,0.7,-5.0,60,48,33,0.00,40.00,6,3,9,0.06
2012-12-31,17.0,10.1,2.0,8.0,3.7,-3.0,84,75,60,0.00,40.00,6,3,11,0.01
2013-1-1,13.0,3.2,-2.0,4.0,-3.3,-8.0,80,74,61,0.00,40.00,9,3,15,0.01